GW4348 Weather Reports


time (UTC)temp
F
wind
direction
speed
knots
gust
knots
rain 1hr
in
rain 24hr
in
rain mn
in
humidity
%
barometer
mb
20260506191716 72 200 1.7 5.2 0.00 0.00 0.00 60 1018.9
20260506191217 72 188 1.7 5.2 0.00 0.00 0.00 61 1019.0
20260506190503 72 169 1.7 5.2 0.00 0.00 0.00 63 1019.1
20260506190003 71 146 2.6 5.2 0.00 0.00 0.00 63 1019.1
20260506185503 71 150 1.7 5.2 0.00 0.00 0.00 62 1019.1
20260506185004 71 153 1.7 5.2 0.00 0.00 0.00 62 1019.2
20260506184503 71 162 1.7 5.2 0.00 0.00 0.00 62 1019.2
20260506184003 71 191 1.7 5.2 0.00 0.00 0.00 62 1019.2
20260506183716 71 225 1.7 4.3 0.00 0.00 0.00 61 1019.2
20260506183003 72 178 1.7 5.2 0.00 0.00 0.00 61 1019.2
20260506182503 72 144 1.7 5.2 0.00 0.00 0.00 60 1019.3
20260506182004 72 93 1.7 4.3 0.00 0.00 0.00 61 1019.3
20260506181716 72 68 1.7 4.3 0.00 0.00 0.00 61 1019.3
20260506181003 72 94 1.7 5.2 0.00 0.00 0.00 58 1019.2
20260506180718 72 104 1.7 5.2 0.00 0.00 0.00 58 1019.2
20260506180004 72 155 1.7 4.3 0.00 0.00 0.00 60 1019.1
20260506175503 72 145 1.7 6.1 0.00 0.00 0.00 60 1019.1
20260506175217 72 137 1.7 6.1 0.00 0.00 0.00 60 1019.2
20260506174503 71 140 2.6 6.1 0.00 0.00 0.00 61 1019.2
20260506174003 71 152 2.6 6.1 0.00 0.00 0.00 61 1019.3
20260506173504 71 149 2.6 6.1 0.00 0.00 0.00 61 1019.3
20260506173004 71 151 2.6 6.1 0.00 0.00 0.00 62 1019.3
20260506172503 71 159 2.6 6.1 0.00 0.00 0.00 62 1019.3
20260506172003 70 144 1.7 6.1 0.00 0.00 0.00 62 1019.3
20260506171720 70 147 1.7 6.1 0.00 0.00 0.00 62 1019.2
20260506171004 70 160 1.7 6.1 0.00 0.00 0.00 62 1019.3
20260506170503 70 174 1.7 5.2 0.00 0.00 0.00 63 1019.4
20260506170003 69 171 1.7 5.2 0.00 0.00 0.00 63 1019.4
20260506165719 69 178 0.9 5.2 0.00 0.00 0.00 63 1019.4
20260506165003 69 142 0.9 3.5 0.00 0.00 0.00 64 1019.4
20260506164503 68 130 0.9 4.3 0.00 0.00 0.00 64 1019.4
20260506164004 68 163 0.9 4.3 0.00 0.00 0.00 64 1019.4
20260506163503 67 205 1.7 4.3 0.00 0.00 0.00 64 1019.4
20260506163003 67 201 1.7 4.3 0.00 0.00 0.00 65 1019.4
20260506162503 67 203 0.9 2.6 0.00 0.00 0.00 66 1019.4
20260506162218 66 179 0.9 2.6 0.00 0.00 0.00 66 1019.4
20260506161504 66 149 0.9 2.6 0.00 0.00 0.00 67 1019.4
20260506161003 65 142 0.9 2.6 0.00 0.00 0.00 68 1019.3
20260506160503 65 151 0.9 2.6 0.00 0.00 0.00 68 1019.4
20260506160003 64 156 0.9 2.6 0.00 0.00 0.00 70 1019.4
20260506155719 64 157 0.9 4.3 0.00 0.00 0.00 70 1019.5
20260506155004 63 197 0.9 4.3 0.00 0.00 0.00 71 1019.5
20260506154503 63 296 0.9 2.6 0.00 0.00 0.00 73 1019.6
20260506154003 62 297 0.9 2.6 0.00 0.00 0.00 75 1019.5
20260506153503 61 297 0.9 1.7 0.00 0.00 0.00 76 1019.5
20260506153004 61 296 0.9 2.6 0.00 0.00 0.00 78 1019.5
20260506152503 60 290 0.9 2.6 0.00 0.00 0.00 79 1019.5
20260506152003 59 291 0.9 2.6 0.00 0.00 0.00 82 1019.3
20260506151503 58 337 0.9 3.5 0.00 0.00 0.00 82 1019.4
20260506151004 58 299 0.9 6.1 0.00 0.00 0.00 83 1019.4
20260506150503 57 267 0.0 6.1 0.00 0.00 0.00 84 1019.4
20260506150218 57 256 6.1 6.1 0.00 0.00 0.00 84 1019.4
20260506145503 57 0 0.0 0.0 0.00 0.00 0.00 85 1019.4
20260506145003 56 0 0.0 0.0 0.00 0.00 0.00 85 1019.4
20260506144503 56 0 0.0 0.0 0.00 0.00 0.00 86 1019.3
20260506144217 56 0 0.0 0.0 0.00 0.00 0.00 86 1019.3
20260506143503 56 0 0.0 0.0 0.00 0.00 0.00 86 1019.3
20260506143004 56 0 0.0 0.0 0.00 0.00 0.00 86 1019.3
20260506142503 56 0 0.0 0.0 0.00 0.00 0.00 86 1019.3
20260506142003 56 0 0.0 0.0 0.00 0.00 0.00 86 1019.2
20260506141718 56 0 0.0 0.0 0.00 0.00 0.00 85 1019.1
20260506141003 56 0 0.0 0.0 0.00 0.00 0.00 85 1019.1
20260506140503 55 0 0.0 0.0 0.00 0.00 0.00 85 1019.1
20260506140003 55 0 0.0 0.0 0.00 0.00 0.00 85 1019.0
20260506135503 55 0 0.0 0.0 0.00 0.00 0.00 85 1019.0
20260506135003 55 0 0.0 0.0 0.00 0.00 0.00 85 1018.9
20260506134504 55 0 0.0 0.0 0.00 0.00 0.00 85 1018.9
20260506134003 55 0 0.0 0.0 0.00 0.00 0.00 85 1018.9
20260506133503 56 0 0.0 0.0 0.00 0.00 0.00 85 1018.9
20260506133003 56 0 0.0 0.0 0.00 0.00 0.00 85 1018.9
20260506132503 56 0 0.0 0.0 0.00 0.00 0.00 85 1018.9
20260506132004 56 0 0.0 0.0 0.00 0.00 0.00 85 1018.7
20260506131718 56 0 0.0 0.0 0.00 0.00 0.00 85 1018.8
20260506131219 56 0 0.0 0.0 0.00 0.00 0.00 85 1018.7
20260506130504 56 0 0.0 0.0 0.00 0.00 0.00 85 1018.7
20260506130004 56 0 0.0 0.0 0.00 0.00 0.00 85 1018.7
20260506125503 56 0 0.0 0.0 0.00 0.00 0.00 85 1018.6
20260506125003 56 0 0.0 0.0 0.00 0.00 0.00 85 1018.6
20260506124504 56 0 0.0 0.0 0.00 0.00 0.00 85 1018.6
20260506124003 56 0 0.0 0.0 0.00 0.00 0.00 85 1018.6
20260506123503 56 0 1.7 1.7 0.00 0.00 0.00 85 1018.6
20260506123003 56 0 1.7 1.7 0.00 0.00 0.00 85 1018.5
20260506122715 56 245 1.7 1.7 0.00 0.00 0.00 85 1018.5
20260506122003 56 245 0.0 1.7 0.00 0.00 0.00 85 1018.5
20260506121503 56 245 0.0 1.7 0.00 0.00 0.00 84 1018.5
20260506121004 56 245 0.0 1.7 0.00 0.00 0.00 84 1018.4
20260506120503 56 253 0.0 2.6 0.00 0.00 0.00 84 1018.4
20260506120003 56 264 0.9 2.6 0.00 0.00 0.00 84 1018.4
20260506115503 56 282 0.9 3.5 0.00 0.00 0.00 84 1018.4
20260506115004 56 266 0.9 3.5 0.00 0.00 0.00 84 1018.4
20260506114503 56 245 0.9 3.5 0.00 0.00 0.00 84 1018.4
20260506114003 56 243 0.9 3.5 0.00 0.00 0.00 84 1018.4
20260506113717 56 248 0.9 2.6 0.00 0.00 0.00 84 1018.3
20260506113218 56 250 0.9 2.6 0.00 0.00 0.00 84 1018.2
20260506112503 56 252 0.0 1.7 0.00 0.00 0.00 84 1018.1
20260506112004 56 252 0.0 0.9 0.00 0.00 0.00 84 1018.1
20260506111503 56 252 0.0 0.9 0.00 0.00 0.00 84 1018.1
20260506111003 56 0 0.0 0.0 0.00 0.00 0.00 84 1018.1
20260506110504 56 0 0.0 0.0 0.00 0.00 0.00 84 1018.0
20260506110003 56 0 0.0 0.0 0.00 0.00 0.00 84 1018.0
20260506105503 56 0 0.0 0.0 0.00 0.00 0.00 84 1018.0
20260506105218 56 0 0.0 0.0 0.00 0.00 0.00 84 1018.0
20260506104503 56 252 0.9 0.9 0.00 0.00 0.00 84 1017.9
20260506104003 56 252 0.9 1.7 0.00 0.00 0.00 84 1017.9
20260506103503 56 252 0.9 1.7 0.00 0.00 0.00 84 1017.9
20260506103003 56 252 0.9 1.7 0.00 0.00 0.00 84 1017.8
20260506102504 56 252 0.0 2.6 0.00 0.00 0.00 84 1017.9
20260506102003 56 252 0.0 2.6 0.00 0.00 0.00 84 1017.8
20260506101503 56 252 0.9 1.7 0.00 0.00 0.00 83 1017.8
20260506101003 56 252 0.9 1.7 0.00 0.00 0.00 83 1017.7
20260506100504 56 252 0.0 1.7 0.00 0.00 0.00 83 1017.7
20260506100004 56 252 0.0 1.7 0.00 0.00 0.00 83 1017.7
20260506095503 56 252 0.0 1.7 0.00 0.00 0.00 83 1017.8
20260506095003 56 252 0.9 1.7 0.00 0.00 0.00 83 1017.8
20260506094503 56 252 0.0 1.7 0.00 0.00 0.00 83 1017.8
20260506094004 56 252 0.0 1.7 0.00 0.00 0.00 83 1017.8
20260506093503 56 252 0.0 1.7 0.00 0.00 0.00 83 1017.7
20260506093218 56 252 0.0 1.7 0.00 0.00 0.00 83 1017.8
20260506092503 56 252 0.0 0.9 0.00 0.00 0.00 83 1017.8
20260506092004 56 252 0.0 1.7 0.00 0.00 0.00 83 1017.8
20260506091503 56 252 0.0 1.7 0.00 0.00 0.00 83 1017.8
20260506091003 56 252 0.0 1.7 0.00 0.00 0.00 83 1017.9
20260506090503 56 252 0.0 1.7 0.00 0.00 0.00 83 1017.9
20260506090003 56 0 0.0 0.0 0.00 0.00 0.00 82 1017.9
20260506085716 56 0 0.0 0.0 0.00 0.00 0.00 83 1017.9
20260506085003 56 0 0.0 0.0 0.00 0.00 0.00 82 1017.9
20260506084503 56 252 0.9 0.9 0.00 0.00 0.00 82 1017.9
20260506084003 56 252 0.9 3.5 0.00 0.00 0.00 82 1017.9
20260506083504 56 259 0.9 3.5 0.00 0.00 0.00 82 1017.9
20260506083003 56 267 0.0 3.5 0.00 0.00 0.00 82 1017.9
20260506082503 56 270 0.0 2.6 0.00 0.00 0.00 82 1017.8
20260506082004 56 267 0.0 1.7 0.00 0.00 0.00 82 1017.9
20260506081504 56 267 0.0 1.7 0.00 0.00 0.00 82 1017.8
20260506081217 56 267 0.0 1.7 0.00 0.00 0.00 82 1017.8
20260506080503 56 267 0.0 1.7 0.00 0.00 0.00 82 1017.8
20260506073503 56 239 0.9 2.6 0.00 0.00 0.00 82 1017.6
20260506073003 56 209 0.9 2.6 0.00 0.00 0.00 81 1017.5
20260506072504 56 227 0.9 2.6 0.00 0.00 0.00 81 1017.4
20260506072004 56 244 1.7 4.3 0.00 0.00 0.00 81 1017.4
20260506071503 56 245 1.7 4.3 0.00 0.00 0.00 81 1017.4
20260506071003 56 247 1.7 5.2 0.00 0.00 0.00 81 1017.3
20260506070503 56 245 1.7 5.2 0.00 0.00 0.00 80 1017.3
20260506062003 57 217 0.9 2.6 0.00 0.00 0.00 79 1016.9
20260506061503 57 218 0.9 3.5 0.00 0.00 0.00 79 1016.9
20260506061003 57 206 0.9 4.3 0.00 0.00 0.00 79 1016.8
20260506060503 57 192 0.9 4.3 0.00 0.00 0.00 79 1016.8
20260506051003 57 197 1.7 5.2 0.00 0.00 0.00 78 1016.5
20260506050503 57 201 1.7 5.2 0.00 0.00 0.00 78 1016.5
20260506045003 57 202 1.7 3.5 0.00 0.00 0.00 79 1016.4
20260506044503 57 207 0.9 4.3 0.00 0.00 0.00 79 1016.3
20260506044004 57 216 0.9 4.3 0.00 0.00 0.00 78 1016.2
20260506043719 57 223 0.9 2.6 0.00 0.00 0.00 78 1016.2
20260506043003 57 230 0.9 3.5 0.00 0.00 0.00 78 1016.1
20260506042503 57 245 1.7 3.5 0.00 0.00 0.00 78 1016.0
20260506042003 57 250 1.7 4.3 0.00 0.00 0.00 77 1016.0
20260506041503 57 250 1.7 4.3 0.00 0.00 0.00 77 1016.0
20260506041220 57 248 2.6 3.5 0.00 0.00 0.00 77 1015.9
20260506040503 57 250 2.6 7.0 0.00 0.00 0.00 77 1015.9
20260506040004 57 247 1.7 7.0 0.00 0.00 0.00 77 1015.8
20260506035503 57 228 1.7 7.0 0.00 0.00 0.00 77 1015.7
20260506035004 58 220 1.7 7.0 0.00 0.00 0.00 77 1015.7
20260506034503 58 230 2.6 5.2 0.00 0.00 0.00 77 1015.7
20260506034003 58 247 2.6 7.0 0.00 0.00 0.00 77 1015.5
20260506033503 58 253 2.6 7.0 0.00 0.00 0.00 77 1015.5
20260506033004 58 249 1.7 7.0 0.00 0.00 0.00 77 1015.4
20260506032503 58 246 2.6 6.1 0.00 0.00 0.00 77 1015.3
20260506032004 58 243 2.6 6.1 0.00 0.00 0.00 76 1015.2
20260506031503 58 244 2.6 8.7 0.00 0.00 0.00 76 1015.2
20260506031003 58 242 3.5 8.7 0.00 0.00 0.00 76 1015.0
20260506030503 58 240 3.5 9.6 0.00 0.00 0.00 75 1014.9
20260506030003 58 242 3.5 9.6 0.00 0.00 0.00 75 1014.9
20260506025504 58 242 4.3 10.4 0.00 0.00 0.00 75 1014.8
20260506025003 58 246 4.3 10.4 0.00 0.00 0.00 75 1014.9
20260506024503 58 246 3.5 7.8 0.00 0.00 0.00 75 1014.8
20260506024004 59 250 3.5 12.2 0.00 0.00 0.00 75 1014.7
20260506023503 59 253 3.5 12.2 0.00 0.00 0.00 74 1014.7
20260506023003 59 245 4.3 9.6 0.00 0.00 0.00 74 1014.6
20260506022504 59 241 4.3 10.4 0.00 0.00 0.00 74 1014.6
20260506022003 59 243 3.5 10.4 0.00 0.00 0.00 74 1014.6
20260506021503 59 241 3.5 8.7 0.00 0.00 0.00 74 1014.6
20260506021004 60 241 3.5 9.6 0.00 0.00 0.00 74 1014.5
20260506020503 60 242 4.3 9.6 0.00 0.00 0.00 74 1014.4
20260506020217 60 242 4.3 10.4 0.00 0.00 0.00 74 1014.4
20260506015503 60 244 4.3 11.3 0.00 0.00 0.00 73 1014.3
20260506015003 60 241 4.3 12.2 0.00 0.00 0.00 73 1014.3
20260506014503 60 240 4.3 12.2 0.00 0.00 0.00 73 1014.2
20260506014004 61 242 4.3 11.3 0.00 0.00 0.00 73 1014.2
20260506013503 61 239 4.3 11.3 0.00 0.00 0.00 72 1014.1
20260506013003 61 236 4.3 11.3 0.00 0.00 0.00 72 1014.1
20260506012720 61 236 4.3 11.3 0.00 0.00 0.00 72 1014.0
20260506012216 61 225 4.3 10.4 0.00 0.00 0.00 72 1014.0
20260506011504 61 222 2.6 12.2 0.00 0.00 0.00 72 1014.1
20260506011003 62 226 3.5 11.3 0.00 0.00 0.00 72 1014.0
20260506010503 62 224 4.3 10.4 0.00 0.00 0.00 73 1014.0
20260506010003 62 238 4.3 13.0 0.00 0.00 0.00 72 1013.9
20260506005503 62 241 4.3 13.0 0.00 0.00 0.00 72 1014.0
20260506005003 62 242 3.5 11.3 0.00 0.00 0.00 72 1014.0
20260506004504 62 241 3.5 11.3 0.00 0.00 0.00 72 1013.9
20260506004003 62 234 3.5 11.3 0.00 0.00 0.00 72 1013.9
20260506003503 62 227 2.6 11.3 0.00 0.00 0.00 72 1013.9
20260506003003 62 222 2.6 9.6 0.00 0.00 0.00 72 1013.8
20260506002503 62 228 2.6 8.7 0.00 0.00 0.00 72 1013.8
20260506002003 63 232 2.6 8.7 0.00 0.00 0.00 72 1013.7
20260506001504 63 234 2.6 7.8 0.00 0.00 0.00 72 1013.7
20260506001003 63 234 3.5 7.8 0.00 0.00 0.00 72 1013.7
20260506000503 63 234 3.5 11.3 0.00 0.00 0.00 71 1013.6
20260506000004 63 229 3.5 11.3 0.00 0.00 0.00 71 1013.6
20260505235504 63 216 3.5 9.6 0.00 0.00 0.00 70 1013.6
20260505235003 63 224 3.5 9.6 0.00 0.00 0.00 70 1013.6
20260505234503 64 228 2.6 10.4 0.00 0.00 0.00 70 1013.6
20260505234003 64 210 2.6 10.4 0.00 0.00 0.00 70 1013.7
20260505233717 64 205 2.6 7.0 0.00 0.00 0.00 69 1013.6
20260505233218 64 204 2.6 8.7 0.00 0.00 0.00 68 1013.6
20260505232504 65 222 3.5 7.0 0.00 0.00 0.00 69 1013.6
20260505232003 65 234 2.6 7.0 0.00 0.00 0.00 69 1013.6
20260505231717 65 234 2.6 7.8 0.00 0.00 0.00 69 1013.6
20260505231003 65 221 2.6 7.8 0.00 0.00 0.00 69 1013.5
20260505230503 65 222 3.5 8.7 0.00 0.00 0.00 70 1013.5
20260505230220 65 223 3.5 9.6 0.00 0.00 0.00 69 1013.5
20260505225504 65 208 3.5 9.6 0.00 0.00 0.00 69 1013.5
20260505225004 65 225 3.5 8.7 0.00 0.00 0.00 69 1013.5
20260505224503 65 239 3.5 8.7 0.00 0.00 0.00 69 1013.6
20260505224220 65 239 3.5 8.7 0.00 0.00 0.00 69 1013.5
20260505223503 66 231 2.6 10.4 0.00 0.00 0.00 69 1013.6
20260505223217 66 224 2.6 10.4 0.00 0.00 0.00 68 1013.7
20260505222503 66 212 3.5 8.7 0.00 0.00 0.00 69 1013.8
20260505222219 66 211 3.5 8.7 0.00 0.00 0.00 69 1013.7
20260505221504 66 221 2.6 8.7 0.00 0.00 0.00 68 1013.8
20260505221003 66 206 2.6 8.7 0.00 0.00 0.00 68 1013.7
20260505220503 66 209 2.6 7.8 0.00 0.00 0.00 68 1013.7
20260505220004 66 203 2.6 8.7 0.00 0.00 0.00 68 1013.7
20260505215504 66 184 2.6 8.7 0.00 0.00 0.00 67 1013.7
20260505215003 66 183 2.6 7.0 0.00 0.00 0.00 67 1013.7
20260505214503 66 199 2.6 10.4 0.00 0.00 0.00 68 1013.9
20260505214003 66 206 2.6 10.4 0.00 0.00 0.00 67 1013.9
20260505213716 67 186 2.6 7.8 0.00 0.00 0.00 68 1013.9
20260505213003 67 200 2.6 7.8 0.00 0.00 0.00 67 1014.0
20260505212503 67 203 2.6 7.0 0.00 0.00 0.00 67 1014.0
20260505212003 67 214 2.6 8.7 0.00 0.00 0.00 67 1014.1
20260505211716 67 222 2.6 8.7 0.00 0.00 0.00 67 1014.1
20260505211003 67 214 2.6 8.7 0.00 0.00 0.00 67 1014.1
20260505210504 67 202 2.6 7.8 0.00 0.00 0.00 68 1014.2
20260505210219 67 208 3.5 7.8 0.00 0.00 0.00 69 1014.2
20260505205503 66 197 3.5 8.7 0.00 0.00 0.00 69 1014.2
20260505205003 66 220 2.6 8.7 0.00 0.00 0.00 70 1014.2
20260505204503 66 221 3.5 7.8 0.00 0.00 0.00 70 1014.2
20260505204003 65 222 3.5 9.6 0.00 0.00 0.00 69 1014.2
20260505203504 65 237 3.5 9.6 0.00 0.00 0.00 70 1014.2
20260505203003 65 234 3.5 8.7 0.00 0.00 0.00 71 1014.2
20260505202503 65 237 3.5 9.6 0.00 0.00 0.00 72 1014.2
20260505202003 65 227 3.5 9.6 0.00 0.00 0.00 73 1014.3
20260505201503 64 208 2.6 8.7 0.00 0.00 0.00 73 1014.3
20260505201003 64 216 2.6 7.0 0.00 0.00 0.00 73 1014.3
20260505200503 64 233 2.6 7.0 0.00 0.00 0.00 73 1014.4
20260505200218 64 230 2.6 7.0 0.00 0.00 0.00 72 1014.5
20260505195716 64 213 2.6 7.0 0.00 0.00 0.00 72 1014.5
20260505195220 64 212 2.6 7.0 0.00 0.00 0.00 72 1014.5
20260505194503 64 219 2.6 7.8 0.00 0.00 0.00 71 1014.5
20260505194003 64 203 2.6 7.0 0.00 0.00 0.00 72 1014.4
20260505193503 65 222 2.6 8.7 0.00 0.00 0.00 71 1014.5
20260505193003 65 226 2.6 8.7 0.00 0.00 0.00 70 1014.5
20260505192504 65 219 2.6 7.0 0.00 0.00 0.00 70 1014.5
20260505192003 65 225 1.7 7.0 0.00 0.00 0.00 71 1014.4